contact:dominique.lefevre@mio.osupytheas.fr, maurice.libes@osupytheas.fr, didier.mallarino@osupytheas.fr
Project:EMSO http://www.emso-fr.org/EMSO-France
Depth: 2436.0 m
Title:EMSO Ligure Ouest : Data MII capteur AQUADOPP
Date,Latitude,Longitude,X_East,Y_North,Z_Up,Amplitude_X,Amplitude_Y,Amplitude_Z,Batterie,SoundSpeed,Heading,Pitch,Roll,Pressure,TIS,Speed,Direction
, degrees North, degrees East, m.s-1, m.s-1,m.s-1, 1, 1, 1, Volt, m.s-1, degree, degree, degree, dbar, degree_C, m.s-1, degree
2022-03-21T00:04:03,42.805,6.029,-0.014,0.026,0.023,103.0,103.0,101.0,13.4,1505.2,326.1,-0.8,1.9,2470.702,13.28,0.029,331.7
2022-03-21T00:07:03,42.805,6.029,-0.002,0.007,0.02,101.0,102.0,101.0,13.4,1505.2,328.4,-0.8,1.8,2470.706,13.28,0.007,344.1
2022-03-21T00:10:03,42.805,6.029,-0.021,0.017,0.028,102.0,101.0,101.0,13.3,1505.2,326.8,-0.7,1.8,2470.665,13.29,0.027,309.0
2022-03-21T00:13:03,42.805,6.029,-0.011,0.002,-0.002,101.0,103.0,102.0,13.4,1505.2,325.1,-0.8,1.8,2470.685,13.29,0.011,280.3
2022-03-21T00:16:03,42.805,6.029,-0.018,-0.005,-0.016,102.0,103.0,102.0,13.4,1505.2,324.8,-0.8,1.9,2470.686,13.29,0.018,254.5
2022-03-21T00:19:03,42.805,6.029,-0.012,0.009,0.003,102.0,102.0,101.0,13.4,1505.2,329.9,-0.7,1.8,2470.656,13.29,0.015,306.9
2022-03-21T00:22:03,42.805,6.029,-0.027,0.004,-0.012,103.0,102.0,101.0,13.4,1505.2,324.2,-0.7,1.8,2470.669,13.29,0.027,278.4
2022-03-21T00:25:03,42.805,6.029,-0.032,0.012,0.031,104.0,101.0,103.0,13.4,1505.2,329.3,-0.7,1.8,2470.659,13.29,0.034,290.6
2022-03-21T00:28:03,42.805,6.029,-0.033,0.003,-0.016,101.0,102.0,101.0,13.3,1505.2,329.4,-0.8,1.8,2470.649,13.29,0.033,275.2
2022-03-21T00:31:03,42.805,6.029,-0.001,-0.002,0.018,103.0,103.0,101.0,13.4,1505.2,328.7,-0.8,1.8,2470.666,13.29,0.002,206.6
2022-03-21T00:34:03,42.805,6.029,-0.001,0.01,-0.01,102.0,104.0,100.0,13.4,1505.2,328.9,-0.7,1.8,2470.648,13.29,0.01,354.3
2022-03-21T00:37:03,42.805,6.029,-0.032,0.004,-0.033,102.0,101.0,103.0,13.4,1505.2,326.7,-0.8,1.8,2470.656,13.29,0.032,277.1
2022-03-21T00:40:03,42.805,6.029,-0.019,0.008,0.02,100.0,103.0,101.0,13.4,1505.2,326.6,-0.8,1.8,2470.647,13.29,0.02,292.8
2022-03-21T00:43:03,42.805,6.029,-0.021,0.002,-0.006,103.0,102.0,102.0,13.3,1505.2,325.9,-0.7,1.8,2470.632,13.29,0.021,275.4
2022-03-21T00:46:03,42.805,6.029,-0.006,0.032,0.0,103.0,102.0,101.0,13.4,1505.2,332.2,-0.8,1.8,2470.648,13.29,0.032,349.4
2022-03-21T00:49:03,42.805,6.029,-0.007,0.015,0.025,103.0,103.0,101.0,13.3,1505.2,329.9,-0.8,1.9,2470.678,13.29,0.016,335.0
2022-03-21T00:52:03,42.805,6.029,-0.024,0.009,0.009,102.0,103.0,102.0,13.4,1505.2,332.1,-0.7,1.8,2470.642,13.29,0.025,290.6
2022-03-21T00:55:03,42.805,6.029,-0.007,0.021,0.017,103.0,103.0,102.0,13.3,1505.2,327.7,-0.8,1.8,2470.653,13.29,0.022,341.6
2022-03-21T00:58:03,42.805,6.029,-0.021,0.0,0.006,102.0,102.0,102.0,13.4,1505.2,325.5,-0.7,1.8,2470.671,13.29,0.021,270.0
2022-03-21T01:04:03,42.805,6.029,-0.046,0.022,0.014,106.0,105.0,103.0,13.4,1505.2,324.4,-0.7,1.8,2470.68,13.28,0.05,295.6
2022-03-21T01:07:03,42.805,6.029,-0.005,0.007,0.033,104.0,103.0,101.0,13.4,1505.2,326.4,-0.7,1.8,2470.65,13.28,0.008,324.5
2022-03-21T01:10:03,42.805,6.029,-0.011,0.012,-0.016,104.0,101.0,101.0,13.3,1505.2,329.1,-0.7,1.8,2470.662,13.29,0.016,317.5
2022-03-21T01:13:03,42.805,6.029,-0.022,0.012,0.0,101.0,103.0,101.0,13.3,1505.2,331.2,-0.7,1.8,2470.639,13.29,0.025,298.6
2022-03-21T01:16:03,42.805,6.029,-0.043,0.01,-0.005,102.0,104.0,101.0,13.3,1505.2,323.9,-0.8,1.8,2470.654,13.29,0.044,283.1
2022-03-21T01:19:03,42.805,6.029,-0.008,-0.009,0.009,103.0,102.0,102.0,13.4,1505.2,329.3,-0.8,1.8,2470.644,13.29,0.012,221.6
2022-03-21T01:22:03,42.805,6.029,-0.006,-0.002,0.017,101.0,103.0,101.0,13.4,1505.2,323.8,-0.8,1.8,2470.644,13.29,0.006,251.6
2022-03-21T01:25:03,42.805,6.029,-0.017,-0.001,-0.002,103.0,100.0,101.0,13.4,1505.2,327.8,-0.7,1.8,2470.622,13.29,0.017,266.6
2022-03-21T01:28:03,42.805,6.029,-0.043,0.013,-0.002,102.0,102.0,102.0,13.3,1505.2,327.0,-0.7,1.8,2470.645,13.29,0.044,286.8
2022-03-21T01:31:03,42.805,6.029,-0.018,0.003,0.007,105.0,104.0,100.0,13.3,1505.2,323.6,-0.7,1.8,2470.621,13.29,0.018,279.5
2022-03-21T01:34:03,42.805,6.029,-0.028,0.029,0.022,103.0,102.0,100.0,13.3,1505.2,328.6,-0.7,1.8,2470.631,13.29,0.04,316.0
2022-03-21T01:37:03,42.805,6.029,-0.003,0.012,0.029,102.0,102.0,101.0,13.4,1505.2,331.9,-0.8,1.8,2470.642,13.29,0.012,346.0
2022-03-21T01:40:03,42.805,6.029,-0.037,0.013,-0.01,103.0,103.0,101.0,13.4,1505.2,325.7,-0.7,1.8,2470.605,13.29,0.039,289.4
2022-03-21T01:43:03,42.805,6.029,-0.05,0.03,0.0,103.0,102.0,101.0,13.3,1505.2,328.4,-0.8,1.8,2470.638,13.29,0.058,301.0
2022-03-21T01:46:03,42.805,6.029,-0.049,0.01,0.014,102.0,101.0,102.0,13.4,1505.2,325.5,-0.7,1.8,2470.591,13.29,0.05,281.5
2022-03-21T01:49:03,42.805,6.029,-0.029,0.012,0.0,101.0,104.0,101.0,13.3,1505.2,329.2,-0.8,1.8,2470.607,13.29,0.031,292.5
2022-03-21T01:52:03,42.805,6.029,-0.047,0.007,0.003,102.0,102.0,103.0,13.4,1505.2,327.7,-0.8,1.8,2470.587,13.29,0.047,278.5
2022-03-21T01:55:03,42.805,6.029,-0.026,0.003,0.022,102.0,103.0,101.0,13.3,1505.2,331.6,-0.8,1.8,2470.597,13.29,0.026,276.6
2022-03-21T01:58:03,42.805,6.029,-0.014,0.001,-0.022,102.0,102.0,101.0,13.4,1505.2,327.6,-0.8,1.8,2470.632,13.29,0.014,274.1
2022-03-21T02:04:03,42.805,6.029,-0.041,0.011,-0.019,102.0,103.0,101.0,13.4,1505.2,325.0,-0.8,1.8,2470.647,13.28,0.042,285.0
2022-03-21T02:07:03,42.805,6.029,-0.028,0.015,0.017,103.0,103.0,101.0,13.3,1505.2,328.9,-0.7,1.8,2470.612,13.29,0.031,298.2
2022-03-21T02:10:03,42.805,6.029,-0.001,0.0,0.028,102.0,102.0,101.0,13.3,1505.2,328.9,-0.8,1.8,2470.617,13.29,0.001,270.0
2022-03-21T02:13:03,42.805,6.029,-0.039,0.017,0.009,102.0,102.0,101.0,13.4,1505.2,326.8,-0.8,1.8,2470.617,13.29,0.042,293.5
2022-03-21T02:16:03,42.805,6.029,-0.004,-0.002,0.001,104.0,102.0,105.0,13.3,1505.2,325.1,-0.8,1.8,2470.574,13.29,0.004,243.4
2022-03-21T02:19:03,42.805,6.029,-0.045,0.005,-0.006,103.0,102.0,101.0,13.4,1505.2,329.4,-0.7,1.8,2470.603,13.29,0.045,276.3
2022-03-21T02:22:03,42.805,6.029,-0.036,0.024,0.003,103.0,103.0,102.0,13.3,1505.2,329.9,-0.8,1.8,2470.623,13.29,0.043,303.7
2022-03-21T02:25:03,42.805,6.029,-0.006,0.022,0.015,104.0,102.0,101.0,13.3,1505.2,327.1,-0.8,1.8,2470.595,13.29,0.022,344.7
2022-03-21T02:28:03,42.805,6.029,-0.014,0.009,0.018,102.0,103.0,101.0,13.4,1505.2,328.5,-0.7,1.8,2470.567,13.29,0.016,302.7
2022-03-21T02:31:03,42.805,6.029,-0.033,0.018,0.029,103.0,103.0,101.0,13.4,1505.2,330.3,-0.8,1.8,2470.567,13.29,0.037,298.6
2022-03-21T02:34:03,42.805,6.029,-0.037,0.019,0.02,102.0,102.0,101.0,13.3,1505.2,324.2,-0.8,1.8,2470.598,13.29,0.041,297.2
2022-03-21T02:37:03,42.805,6.029,-0.044,0.014,0.013,102.0,102.0,101.0,13.3,1505.2,325.7,-0.7,1.8,2470.584,13.29,0.046,287.6
2022-03-21T02:40:03,42.805,6.029,-0.019,0.021,0.015,101.0,102.0,101.0,13.4,1505.2,323.7,-0.7,1.8,2470.587,13.29,0.028,317.9
2022-03-21T02:43:03,42.805,6.029,-0.023,0.011,0.033,102.0,103.0,101.0,13.4,1505.2,322.8,-0.8,1.8,2470.597,13.29,0.025,295.6
2022-03-21T02:46:03,42.805,6.029,-0.043,0.018,0.017,103.0,103.0,101.0,13.4,1505.2,323.2,-0.7,1.8,2470.606,13.29,0.046,292.7
2022-03-21T02:49:03,42.805,6.029,-0.037,0.027,0.01,102.0,103.0,102.0,13.4,1505.2,324.4,-0.7,1.8,2470.577,13.29,0.045,306.1
2022-03-21T02:52:03,42.805,6.029,-0.025,-0.007,-0.02,103.0,101.0,102.0,13.3,1505.2,328.8,-0.8,1.8,2470.55,13.29,0.025,254.4
2022-03-21T02:55:03,42.805,6.029,-0.026,0.022,0.024,103.0,102.0,101.0,13.4,1505.2,322.5,-0.8,1.8,2470.588,13.29,0.034,310.2
2022-03-21T02:58:03,42.805,6.029,-0.033,0.021,0.021,103.0,103.0,101.0,13.4,1505.2,326.1,-0.8,1.8,2470.603,13.29,0.039,302.5
2022-03-21T03:04:03,42.805,6.029,-0.038,0.019,-0.005,103.0,104.0,100.0,13.4,1505.2,325.0,-0.7,1.8,2470.641,13.28,0.042,296.6
2022-03-21T03:07:03,42.805,6.029,-0.045,0.013,-0.019,103.0,103.0,102.0,13.4,1505.2,329.0,-0.7,1.8,2470.614,13.28,0.046,286.1
2022-03-21T03:10:03,42.805,6.029,-0.01,0.006,0.011,102.0,103.0,101.0,13.4,1505.2,332.2,-0.8,1.8,2470.567,13.28,0.011,301.0
2022-03-21T03:13:03,42.805,6.029,-0.027,-0.013,0.0,104.0,103.0,100.0,13.4,1505.2,326.9,-0.8,1.8,2470.591,13.29,0.029,244.3
2022-03-21T03:16:03,42.805,6.029,-0.012,-0.013,0.001,103.0,103.0,101.0,13.4,1505.2,332.4,-0.8,1.8,2470.579,13.29,0.017,222.7
2022-03-21T03:19:03,42.805,6.029,-0.023,0.007,-0.008,102.0,102.0,101.0,13.3,1505.2,327.8,-0.8,1.8,2470.58,13.29,0.024,286.9
2022-03-21T03:22:03,42.805,6.029,-0.05,0.015,0.002,101.0,103.0,102.0,13.3,1505.2,331.5,-0.7,1.8,2470.588,13.29,0.052,286.7
2022-03-21T03:25:03,42.805,6.029,-0.009,0.022,-0.001,102.0,103.0,101.0,13.4,1505.2,327.4,-0.8,1.8,2470.554,13.29,0.023,337.8
2022-03-21T03:28:03,42.805,6.029,-0.04,0.01,0.025,101.0,103.0,102.0,13.4,1505.2,327.0,-0.8,1.8,2470.581,13.29,0.041,284.0
2022-03-21T03:31:03,42.805,6.029,-0.022,0.004,0.002,103.0,102.0,102.0,13.4,1505.2,323.4,-0.7,1.8,2470.576,13.29,0.022,280.3
2022-03-21T03:34:03,42.805,6.029,-0.035,0.02,0.009,101.0,103.0,101.0,13.4,1505.2,326.8,-0.8,1.8,2470.582,13.29,0.04,299.7
2022-03-21T03:37:03,42.805,6.029,-0.039,0.002,0.004,101.0,102.0,101.0,13.4,1505.2,324.6,-0.8,1.8,2470.576,13.29,0.039,272.9
2022-03-21T03:40:03,42.805,6.029,-0.025,0.017,0.027,103.0,102.0,101.0,13.4,1505.2,325.9,-0.7,1.8,2470.571,13.29,0.03,304.2
2022-03-21T03:43:03,42.805,6.029,-0.015,0.018,-0.002,103.0,102.0,102.0,13.4,1505.2,328.1,-0.8,1.8,2470.541,13.29,0.023,320.2
2022-03-21T03:46:03,42.805,6.029,-0.04,-0.003,0.014,102.0,103.0,101.0,13.3,1505.2,324.5,-0.8,1.9,2470.577,13.29,0.04,265.7
2022-03-21T03:49:03,42.805,6.029,-0.005,0.009,0.013,102.0,104.0,101.0,13.4,1505.2,327.6,-0.8,1.8,2470.575,13.29,0.01,330.9
2022-03-21T03:52:03,42.805,6.029,-0.017,0.021,0.017,102.0,103.0,101.0,13.3,1505.2,326.2,-0.8,1.8,2470.576,13.29,0.027,321.0
2022-03-21T03:55:03,42.805,6.029,-0.026,0.011,0.023,104.0,103.0,101.0,13.3,1505.2,327.2,-0.8,1.8,2470.58,13.29,0.028,292.9
2022-03-21T03:58:03,42.805,6.029,-0.016,0.016,0.035,104.0,101.0,102.0,13.4,1505.2,332.6,-0.8,1.8,2470.581,13.29,0.022,315.0
2022-03-21T04:04:03,42.805,6.029,-0.025,0.019,0.022,102.0,103.0,102.0,13.4,1505.2,326.8,-0.8,1.8,2470.602,13.28,0.031,307.2
2022-03-21T04:07:03,42.805,6.029,-0.021,0.008,-0.003,104.0,103.0,102.0,13.4,1505.2,331.7,-0.7,1.8,2470.601,13.28,0.022,290.9
2022-03-21T04:10:03,42.805,6.029,-0.028,0.029,0.004,102.0,103.0,101.0,13.4,1505.2,326.7,-0.7,1.8,2470.6,13.28,0.04,316.0
2022-03-21T04:13:03,42.805,6.029,-0.017,0.008,0.016,102.0,103.0,102.0,13.4,1505.2,328.4,-0.8,1.8,2470.579,13.29,0.018,295.2
2022-03-21T04:16:03,42.805,6.029,-0.042,0.012,-0.019,106.0,102.0,102.0,13.4,1505.2,329.4,-0.7,1.8,2470.615,13.29,0.043,285.9
2022-03-21T04:19:03,42.805,6.029,-0.008,0.03,0.013,102.0,103.0,102.0,13.3,1505.2,329.1,-0.8,1.8,2470.599,13.29,0.031,345.1
2022-03-21T04:22:03,42.805,6.029,-0.02,-0.007,0.001,104.0,103.0,102.0,13.4,1505.2,328.4,-0.8,1.8,2470.619,13.29,0.021,250.7
2022-03-21T04:25:03,42.805,6.029,-0.023,0.004,-0.009,104.0,103.0,102.0,13.4,1505.2,322.4,-0.8,1.8,2470.588,13.29,0.023,279.9
2022-03-21T04:28:03,42.805,6.029,-0.023,0.024,0.01,104.0,103.0,101.0,13.4,1505.2,330.6,-0.7,1.8,2470.624,13.29,0.033,316.2
2022-03-21T04:31:03,42.805,6.029,-0.038,0.032,-0.007,103.0,102.0,101.0,13.4,1505.2,326.5,-0.8,1.8,2470.562,13.29,0.049,310.1
2022-03-21T04:34:03,42.805,6.029,-0.031,0.021,-0.004,103.0,103.0,101.0,13.3,1505.2,325.4,-0.8,1.8,2470.588,13.29,0.037,304.1
2022-03-21T04:37:03,42.805,6.029,-0.027,0.011,0.02,102.0,103.0,102.0,13.3,1505.2,327.6,-0.7,1.8,2470.588,13.29,0.029,292.2
2022-03-21T04:40:03,42.805,6.029,-0.013,0.018,-0.007,104.0,103.0,101.0,13.4,1505.2,329.8,-0.7,1.8,2470.596,13.29,0.022,324.2
2022-03-21T04:43:03,42.805,6.029,-0.022,0.013,0.013,102.0,103.0,102.0,13.4,1505.2,329.2,-0.8,1.8,2470.632,13.29,0.025,300.6
2022-03-21T04:46:03,42.805,6.029,-0.023,0.007,-0.016,104.0,103.0,102.0,13.4,1505.2,329.3,-0.8,1.8,2470.605,13.29,0.024,286.9
2022-03-21T04:49:03,42.805,6.029,-0.012,0.003,-0.012,103.0,103.0,102.0,13.4,1505.2,327.0,-0.7,1.8,2470.59,13.29,0.012,284.0
2022-03-21T04:52:03,42.805,6.029,-0.024,0.026,0.0,103.0,104.0,101.0,13.4,1505.2,328.3,-0.7,1.8,2470.629,13.29,0.035,317.3
2022-03-21T04:55:03,42.805,6.029,-0.028,0.029,-0.004,103.0,104.0,101.0,13.4,1505.2,330.0,-0.8,1.8,2470.602,13.29,0.04,316.0
2022-03-21T04:58:03,42.805,6.029,-0.015,0.013,0.038,105.0,104.0,101.0,13.4,1505.2,331.6,-0.7,1.9,2470.579,13.29,0.019,310.9
2022-03-21T05:04:03,42.805,6.029,-0.016,0.012,0.004,102.0,102.0,102.0,13.4,1505.2,325.8,-0.8,1.8,2470.628,13.28,0.02,306.9
2022-03-21T05:07:03,42.805,6.029,-0.025,0.006,0.017,102.0,103.0,102.0,13.4,1505.2,330.4,-0.8,1.8,2470.608,13.28,0.025,283.5
2022-03-21T05:10:03,42.805,6.029,-0.04,0.027,0.01,102.0,103.0,102.0,13.4,1505.2,331.9,-0.8,1.8,2470.627,13.28,0.048,304.0
2022-03-21T05:13:03,42.805,6.029,-0.034,0.015,0.005,103.0,104.0,101.0,13.3,1505.2,331.9,-0.7,1.8,2470.618,13.28,0.037,293.8
2022-03-21T05:16:03,42.805,6.029,0.003,0.006,0.005,102.0,102.0,101.0,13.4,1505.2,324.8,-0.8,1.8,2470.598,13.29,0.006,26.6
2022-03-21T05:19:03,42.805,6.029,-0.038,0.012,-0.014,102.0,104.0,101.0,13.4,1505.2,326.4,-0.8,1.9,2470.628,13.29,0.039,287.5
2022-03-21T05:22:03,42.805,6.029,-0.011,-0.001,-0.001,101.0,103.0,101.0,13.3,1505.2,323.1,-0.8,1.8,2470.643,13.29,0.011,264.8
2022-03-21T05:25:03,42.805,6.029,-0.014,0.011,0.025,103.0,104.0,101.0,13.4,1505.2,329.0,-0.8,1.8,2470.634,13.29,0.017,308.2
2022-03-21T05:28:03,42.805,6.029,-0.029,0.011,-0.008,104.0,103.0,102.0,13.4,1505.2,331.1,-0.8,1.8,2470.619,13.29,0.031,290.8
2022-03-21T05:31:03,42.805,6.029,-0.031,-0.001,0.005,104.0,103.0,102.0,13.4,1505.2,325.7,-0.7,1.8,2470.641,13.29,0.031,268.2
2022-03-21T05:34:03,42.805,6.029,-0.022,0.01,-0.005,103.0,102.0,102.0,13.4,1505.2,327.5,-0.8,1.8,2470.632,13.29,0.024,294.4
2022-03-21T05:37:03,42.805,6.029,-0.013,0.011,-0.001,103.0,103.0,101.0,13.3,1505.2,328.4,-0.8,1.8,2470.649,13.29,0.017,310.2
2022-03-21T05:40:03,42.805,6.029,-0.025,0.029,0.002,101.0,103.0,102.0,13.4,1505.2,331.4,-0.8,1.8,2470.66,13.29,0.038,319.2
2022-03-21T05:43:03,42.805,6.029,-0.02,0.024,-0.003,103.0,102.0,102.0,13.4,1505.2,331.9,-0.8,1.8,2470.65,13.29,0.031,320.2
2022-03-21T05:46:03,42.805,6.029,-0.027,0.012,0.01,102.0,103.0,101.0,13.4,1505.2,327.2,-0.7,1.8,2470.68,13.29,0.029,294.0
2022-03-21T05:49:03,42.805,6.029,0.002,0.01,0.016,102.0,101.0,101.0,13.4,1505.2,326.0,-0.7,1.8,2470.628,13.29,0.01,11.3
2022-03-21T05:52:03,42.805,6.029,-0.015,0.009,0.014,102.0,103.0,102.0,13.4,1505.2,323.4,-0.7,1.8,2470.658,13.29,0.017,301.0
2022-03-21T05:55:03,42.805,6.029,-0.008,0.023,0.003,102.0,102.0,102.0,13.4,1505.2,330.5,-0.7,1.8,2470.635,13.29,0.024,340.8
2022-03-21T05:58:03,42.805,6.029,-0.036,0.013,-0.01,102.0,103.0,102.0,13.3,1505.2,329.6,-0.8,1.8,2470.684,13.29,0.038,289.9
2022-03-21T06:04:03,42.805,6.029,-0.027,0.002,-0.007,102.0,104.0,102.0,13.4,1505.2,329.2,-0.8,1.8,2470.729,13.28,0.027,274.2
2022-03-21T06:07:03,42.805,6.029,-0.037,0.016,0.016,103.0,103.0,101.0,13.4,1505.2,329.6,-0.8,1.8,2470.674,13.28,0.04,293.4
2022-03-21T06:10:03,42.805,6.029,-0.018,0.017,0.017,105.0,102.0,101.0,13.4,1505.2,332.6,-0.8,1.8,2470.704,13.28,0.024,313.4
2022-03-21T06:13:03,42.805,6.029,-0.014,0.009,0.012,103.0,103.0,101.0,13.4,1505.2,323.4,-0.8,1.8,2470.723,13.29,0.016,302.7
2022-03-21T06:16:03,42.805,6.029,-0.024,0.032,0.005,102.0,104.0,101.0,13.4,1505.2,328.6,-0.7,1.8,2470.697,13.29,0.04,323.1
2022-03-21T06:19:03,42.805,6.029,-0.035,0.014,0.014,103.0,103.0,101.0,13.4,1505.2,327.2,-0.8,1.8,2470.688,13.29,0.037,291.8
2022-03-21T06:22:03,42.805,6.029,-0.036,0.013,0.021,103.0,102.0,101.0,13.4,1505.2,328.5,-0.7,1.8,2470.66,13.29,0.038,289.9
2022-03-21T06:25:03,42.805,6.029,-0.021,0.021,0.002,103.0,103.0,102.0,13.3,1505.2,329.6,-0.7,1.8,2470.71,13.29,0.029,315.0
2022-03-21T06:28:03,42.805,6.029,-0.022,0.027,0.021,102.0,104.0,101.0,13.3,1505.2,329.4,-0.8,1.8,2470.725,13.29,0.034,320.8
2022-03-21T06:31:03,42.805,6.029,-0.017,0.007,0.006,103.0,104.0,101.0,13.4,1505.2,326.1,-0.8,1.8,2470.696,13.29,0.018,292.4
2022-03-21T06:34:03,42.805,6.029,-0.01,0.007,0.022,102.0,104.0,101.0,13.4,1505.2,325.1,-0.8,1.8,2470.706,13.29,0.012,305.0
2022-03-21T06:37:03,42.805,6.029,-0.023,0.017,0.019,103.0,104.0,101.0,13.3,1505.2,324.6,-0.8,1.8,2470.775,13.29,0.028,306.5
2022-03-21T06:40:03,42.805,6.029,-0.024,0.02,0.002,103.0,102.0,101.0,13.4,1505.2,329.1,-0.8,1.8,2470.734,13.29,0.031,309.8
2022-03-21T06:43:03,42.805,6.029,-0.015,0.022,0.027,101.0,102.0,101.0,13.4,1505.2,322.9,-0.8,1.8,2470.713,13.29,0.026,325.7
2022-03-21T06:46:03,42.805,6.029,-0.011,0.019,0.004,103.0,103.0,101.0,13.4,1505.2,329.9,-0.7,1.8,2470.766,13.29,0.021,329.9
2022-03-21T06:49:03,42.805,6.029,-0.025,0.026,0.021,102.0,103.0,102.0,13.4,1505.2,326.1,-0.7,1.8,2470.759,13.29,0.036,316.1
2022-03-21T06:52:03,42.805,6.029,-0.008,0.013,0.022,103.0,102.0,101.0,13.4,1505.2,331.7,-0.8,1.8,2470.741,13.29,0.015,328.4
2022-03-21T06:55:03,42.805,6.029,-0.03,0.028,0.005,102.0,103.0,103.0,13.4,1505.2,322.9,-0.8,1.8,2470.736,13.29,0.041,313.0
2022-03-21T06:58:03,42.805,6.029,-0.011,0.021,0.007,102.0,103.0,101.0,13.3,1505.2,332.3,-0.8,1.8,2470.737,13.29,0.023,332.4
2022-03-21T07:04:03,42.805,6.029,-0.022,0.011,0.011,103.0,104.0,101.0,13.4,1505.2,328.6,-0.7,1.8,2470.778,13.28,0.024,296.6
2022-03-21T07:07:03,42.805,6.029,-0.002,0.012,-0.024,103.0,103.0,102.0,13.4,1505.2,327.6,-0.8,1.9,2470.78,13.28,0.012,350.5
2022-03-21T07:10:03,42.805,6.029,-0.01,0.003,0.0,103.0,103.0,102.0,13.4,1505.2,328.9,-0.8,1.8,2470.761,13.28,0.01,286.7
2022-03-21T07:13:03,42.805,6.029,-0.02,0.001,-0.01,102.0,103.0,102.0,13.3,1505.2,329.7,-0.8,1.8,2470.797,13.29,0.02,272.9
2022-03-21T07:16:03,42.805,6.029,-0.02,0.012,-0.008,102.0,104.0,102.0,13.4,1505.2,324.7,-0.8,1.8,2470.767,13.29,0.023,301.0
2022-03-21T07:19:03,42.805,6.029,-0.005,0.012,0.023,103.0,103.0,102.0,13.4,1505.2,327.5,-0.8,1.8,2470.779,13.29,0.013,337.4
2022-03-21T07:22:03,42.805,6.029,-0.017,0.019,0.01,103.0,102.0,101.0,13.3,1505.2,332.7,-0.8,1.8,2470.789,13.29,0.025,318.2
2022-03-21T07:25:03,42.805,6.029,-0.006,0.003,0.035,103.0,102.0,101.0,13.3,1505.2,324.7,-0.7,1.8,2470.761,13.29,0.006,296.6
2022-03-21T07:28:03,42.805,6.029,-0.026,0.032,-0.001,103.0,102.0,101.0,13.4,1505.2,328.4,-0.7,1.8,2470.791,13.29,0.041,320.9
2022-03-21T07:31:03,42.805,6.029,-0.038,0.009,-0.01,102.0,102.0,102.0,13.3,1505.2,325.1,-0.8,1.8,2470.758,13.29,0.039,283.3
2022-03-21T07:34:03,42.805,6.029,-0.026,0.001,-0.005,103.0,105.0,101.0,13.3,1505.2,330.5,-0.8,1.8,2470.745,13.29,0.026,272.2
2022-03-21T07:37:03,42.805,6.029,-0.013,0.026,0.008,103.0,105.0,101.0,13.3,1505.2,330.9,-0.8,1.9,2470.824,13.29,0.029,333.4
2022-03-21T07:40:03,42.805,6.029,-0.027,0.018,0.011,102.0,102.0,101.0,13.4,1505.2,325.1,-0.8,1.8,2470.759,13.29,0.032,303.7
2022-03-21T07:43:03,42.805,6.029,-0.016,0.036,0.029,102.0,103.0,102.0,13.3,1505.2,330.2,-0.7,1.8,2470.812,13.29,0.039,336.0
2022-03-21T07:46:03,42.805,6.029,-0.027,-0.01,-0.012,104.0,103.0,102.0,13.3,1505.2,328.3,-0.8,1.8,2470.78,13.29,0.028,249.7
2022-03-21T07:49:03,42.805,6.029,-0.029,0.016,0.028,102.0,103.0,102.0,13.4,1505.2,327.4,-0.8,1.8,2470.784,13.29,0.033,298.9
2022-03-21T07:52:03,42.805,6.029,-0.023,0.026,0.012,104.0,102.0,101.0,13.4,1505.2,332.4,-0.7,1.8,2470.731,13.29,0.034,318.5
2022-03-21T07:55:03,42.805,6.029,-0.019,-0.001,0.017,104.0,105.0,102.0,13.3,1505.2,326.1,-0.7,1.8,2470.792,13.29,0.019,267.0
2022-03-21T07:58:03,42.805,6.029,-0.01,0.015,-0.021,102.0,103.0,102.0,13.3,1505.2,332.6,-0.7,1.9,2470.818,13.29,0.018,326.3
2022-03-21T08:04:03,42.805,6.029,-0.021,-0.006,0.011,102.0,103.0,101.0,13.3,1505.2,327.9,-0.8,1.8,2470.842,13.28,0.021,254.1
2022-03-21T08:07:03,42.805,6.029,-0.016,0.048,0.038,102.0,103.0,101.0,13.3,1505.2,328.0,-0.8,1.8,2470.792,13.28,0.05,341.6
2022-03-21T08:10:03,42.805,6.029,-0.009,0.01,0.033,103.0,102.0,101.0,13.4,1505.2,327.3,-0.8,1.8,2470.821,13.28,0.013,318.0
2022-03-21T08:13:03,42.805,6.029,-0.03,-0.003,-0.004,102.0,103.0,101.0,13.4,1505.2,326.8,-0.7,1.8,2470.805,13.29,0.03,264.3
2022-03-21T08:16:03,42.805,6.029,-0.008,0.0,-0.006,104.0,104.0,101.0,13.4,1505.2,328.6,-0.8,1.8,2470.804,13.29,0.008,270.0
2022-03-21T08:19:03,42.805,6.029,-0.038,0.024,0.014,101.0,104.0,102.0,13.4,1505.2,325.6,-0.7,1.8,2470.804,13.29,0.044,302.3
2022-03-21T08:22:03,42.805,6.029,-0.019,0.009,0.005,103.0,102.0,102.0,13.4,1505.2,328.8,-0.7,1.8,2470.79,13.29,0.021,295.3
2022-03-21T08:25:03,42.805,6.029,-0.023,0.022,0.024,102.0,104.0,102.0,13.4,1505.2,326.4,-0.8,1.8,2470.828,13.29,0.031,313.7
2022-03-21T08:28:03,42.805,6.029,-0.029,0.006,-0.009,103.0,102.0,101.0,13.3,1505.2,329.2,-0.7,1.8,2470.805,13.29,0.029,281.7
2022-03-21T08:31:03,42.805,6.029,0.006,-0.008,0.009,103.0,102.0,102.0,13.4,1505.2,324.9,-0.8,1.8,2470.772,13.29,0.01,143.1
2022-03-21T08:34:03,42.805,6.029,-0.033,-0.001,0.016,104.0,102.0,101.0,13.3,1505.2,326.2,-0.8,1.8,2470.805,13.29,0.033,268.3
2022-03-21T08:37:03,42.805,6.029,0.0,-0.01,-0.003,102.0,104.0,102.0,13.4,1505.2,324.0,-0.7,1.8,2470.789,13.29,0.01,180.0
2022-03-21T08:40:03,42.805,6.029,-0.004,0.002,0.005,104.0,102.0,101.0,13.3,1505.2,327.5,-0.7,1.8,2470.773,13.29,0.004,296.6
2022-03-21T08:43:03,42.805,6.029,-0.011,0.005,0.023,103.0,103.0,102.0,13.3,1505.2,327.2,-0.8,1.8,2470.785,13.29,0.012,294.4
2022-03-21T08:46:03,42.805,6.029,-0.008,-0.017,-0.017,101.0,103.0,101.0,13.3,1505.2,322.7,-0.7,1.9,2470.802,13.29,0.018,205.2
2022-03-21T08:49:03,42.805,6.029,-0.033,0.019,0.005,102.0,103.0,101.0,13.4,1505.2,324.8,-0.7,1.8,2470.783,13.29,0.038,299.9
2022-03-21T08:52:03,42.805,6.029,0.004,-0.014,0.009,102.0,103.0,101.0,13.4,1505.2,332.1,-0.7,1.8,2470.777,13.29,0.014,164.1
2022-03-21T08:55:03,42.805,6.029,-0.016,0.005,0.002,103.0,103.0,102.0,13.4,1505.2,331.3,-0.8,1.8,2470.775,13.29,0.016,287.4
2022-03-21T08:58:03,42.805,6.029,-0.036,0.03,-0.002,102.0,103.0,101.0,13.4,1505.2,328.2,-0.8,1.8,2470.815,13.29,0.046,309.8
2022-03-21T09:04:03,42.805,6.029,0.005,-0.031,0.022,103.0,103.0,101.0,13.4,1505.2,323.4,-0.7,1.8,2470.826,13.28,0.031,170.8
2022-03-21T09:07:03,42.805,6.029,0.009,0.006,0.025,102.0,103.0,102.0,13.4,1505.2,333.1,-0.8,1.8,2470.807,13.28,0.01,56.3
2022-03-21T09:10:03,42.805,6.029,-0.017,0.014,0.027,104.0,104.0,101.0,13.4,1505.2,330.9,-0.8,1.8,2470.792,13.28,0.022,309.5
2022-03-21T09:13:03,42.805,6.029,-0.014,0.012,0.013,104.0,102.0,102.0,13.4,1505.2,324.7,-0.8,1.8,2470.815,13.29,0.018,310.6
2022-03-21T09:16:03,42.805,6.029,-0.043,0.014,0.02,104.0,103.0,102.0,13.4,1505.2,328.4,-0.8,1.8,2470.809,13.29,0.045,288.0
2022-03-21T09:19:03,42.805,6.029,-0.013,0.019,0.004,102.0,103.0,101.0,13.4,1505.2,326.1,-0.8,1.8,2470.804,13.29,0.023,325.6
2022-03-21T09:22:03,42.805,6.029,-0.016,0.017,0.015,101.0,103.0,101.0,13.4,1505.2,329.8,-0.8,1.8,2470.773,13.29,0.023,316.7
2022-03-21T09:25:03,42.805,6.029,-0.037,0.006,-0.009,103.0,103.0,102.0,13.3,1505.2,332.4,-0.8,1.8,2470.766,13.29,0.037,279.2
2022-03-21T09:28:03,42.805,6.029,-0.017,0.0,0.0,103.0,104.0,102.0,13.3,1505.2,322.4,-0.8,1.8,2470.804,13.29,0.017,270.0
2022-03-21T09:31:03,42.805,6.029,-0.018,0.016,-0.003,102.0,103.0,102.0,13.3,1505.2,323.3,-0.8,1.8,2470.79,13.29,0.024,311.6
2022-03-21T09:34:03,42.805,6.029,-0.03,0.026,0.003,103.0,103.0,101.0,13.4,1505.2,328.2,-0.8,1.8,2470.797,13.29,0.039,310.9
2022-03-21T09:37:03,42.805,6.029,-0.022,0.01,0.03,102.0,103.0,101.0,13.3,1505.2,329.9,-0.8,1.8,2470.819,13.29,0.024,294.4
2022-03-21T09:40:03,42.805,6.029,-0.004,0.026,0.031,103.0,104.0,103.0,13.3,1505.2,322.8,-0.7,1.8,2470.791,13.29,0.026,351.3
2022-03-21T09:43:03,42.805,6.029,-0.04,0.002,-0.007,103.0,104.0,102.0,13.3,1505.2,329.7,-0.7,1.8,2470.796,13.29,0.04,272.9
2022-03-21T09:46:03,42.805,6.029,-0.01,0.019,0.019,103.0,103.0,101.0,13.4,1505.2,322.4,-0.8,1.8,2470.792,13.29,0.021,332.2
2022-03-21T09:49:03,42.805,6.029,-0.032,0.013,0.015,103.0,104.0,100.0,13.4,1505.2,327.7,-0.7,1.8,2470.778,13.29,0.034,292.1
2022-03-21T09:52:03,42.805,6.029,-0.047,0.01,0.018,103.0,103.0,102.0,13.4,1505.2,326.9,-0.8,1.8,2470.784,13.29,0.048,282.0
2022-03-21T09:55:03,42.805,6.029,-0.011,0.02,0.015,103.0,103.0,102.0,13.4,1505.2,329.5,-0.7,1.8,2470.777,13.29,0.022,331.2